Weather History for Albemarle, NC

Change the Weather History Date:

Sunday, March 31, 2013

  Actual Average (KHBI) Record (KHBI)
Temperature  
Mean Temperature 58 °F -  
Max Temperature 69 °F 68 °F 89 °F (1986)
Min Temperature 48 °F 44 °F 22 °F (1964)
Degree Days  
Heating Degree Days 6    
Growing Degree Days 8 (Base 50)    
Moisture  
Dew Point 52 °F    
Average Humidity 85    
Maximum Humidity 100    
Minimum Humidity 58    
Precipitation  
Precipitation 0.25 in - - ()
Sea Level Pressure  
Sea Level Pressure 29.96 in    
Wind  
Wind Speed 5 mph (SSW)    
Max Wind Speed 13 mph    
Max Gust Speed 21 mph    
Visibility 9 miles    
Events Fog , Rain , Thunderstorm    
Averages and records for this station are not official NWS values.
T = Trace of Precipitation, MM = Missing Value Source: NWS Daily Summary

Daily Weather History Graph

Daily Weather History Graph

Search for Another Location

Airport:

Trip Planner

Search our weather history database for the weather conditions in past years. The results will help you decide how hot, cold, wet, or windy it might be!

Date:

Astronomy

Mar. 31, 2013 Rise Set
Actual Time 7:08 AM EDT 7:41 PM EDT
Civil Twilight 6:42 AM EDT 8:07 PM EDT
Nautical Twilight 6:12 AM EDT 8:37 PM EDT
Astronomical Twilight 5:41 AM EDT 9:08 PM EDT
Moon No Moon Rise 10:03 AM EDT (3/31)
Length of Visible Light 13h 24m
Length of Day
12h 33m
Waning Gibbous, 78% of the Moon is Illuminated
Mar 31
Waning Gibbous
Apr 3
Last Quarter
Apr 10
New
Apr 18
First Quarter
Apr 25
Full

Hourly Weather History & Observations

Time (EDT) Temp. Dew Point Humidity Pressure Visibility Wind Dir Wind Speed Gust Speed Precip Events Conditions
12:15 AM 54.0 °F 45.9 °F 74% 30.12 in 10.0 mi SSE 5.8 mph - N/A   Clear
12:35 AM 52.9 °F 45.7 °F 77% 30.12 in 10.0 mi SSE 6.9 mph - N/A   Clear
12:55 AM 52.7 °F 45.9 °F 78% 30.12 in 10.0 mi SSE 8.1 mph - N/A   Clear
1:15 AM 51.8 °F 45.5 °F 79% 30.10 in 10.0 mi SSE 4.6 mph - N/A   Clear
1:35 AM 51.6 °F 45.9 °F 81% 30.10 in 10.0 mi SSE 4.6 mph - N/A   Mostly Cloudy
1:55 AM 50.9 °F 45.9 °F 83% 30.09 in 10.0 mi South 3.5 mph - N/A   Mostly Cloudy
2:15 AM 50.9 °F 45.7 °F 82% 30.08 in 10.0 mi SSE 3.5 mph - N/A   Scattered Clouds
2:35 AM 51.1 °F 45.7 °F 82% 30.07 in 10.0 mi Calm Calm - N/A   Mostly Cloudy
2:55 AM 52.0 °F 45.7 °F 79% 30.06 in 10.0 mi SSE 4.6 mph - N/A   Overcast
3:15 AM 51.8 °F 45.7 °F 80% 30.05 in 10.0 mi South 3.5 mph - N/A   Overcast
3:35 AM 51.6 °F 45.9 °F 81% 30.04 in 10.0 mi Calm Calm - N/A   Light Drizzle
3:55 AM 51.1 °F 46.4 °F 84% 30.05 in 10.0 mi WSW 5.8 mph - N/A Rain Light Rain
4:15 AM 50.4 °F 47.1 °F 89% 30.05 in 10.0 mi SW 5.8 mph - N/A Rain Light Rain
4:35 AM 49.3 °F 47.5 °F 94% 30.05 in 7.0 mi Calm Calm - 0.02 in Rain Rain
4:55 AM 48.9 °F 48.2 °F 97% 30.04 in 5.0 mi SSE 3.5 mph - 0.05 in Rain Heavy Rain
5:15 AM 48.6 °F 48.2 °F 99% 30.02 in 5.0 mi Calm Calm - 0.04 in Rain Rain
5:35 AM 48.6 °F 48.2 °F 99% 30.01 in 4.0 mi Calm Calm - 0.09 in Rain Rain
5:55 AM 48.4 °F 48.2 °F 99% 30.00 in 7.0 mi SE 3.5 mph - 0.10 in Rain Rain
6:15 AM 48.4 °F 48.2 °F 99% 30.00 in 7.0 mi South 4.6 mph - N/A Rain Light Rain
6:35 AM 48.4 °F 48.2 °F 99% 30.00 in 7.0 mi South 5.8 mph - 0.01 in Rain Heavy Rain
6:55 AM 48.6 °F 48.4 °F 99% 30.00 in 7.0 mi South 5.8 mph - 0.02 in Rain Rain
7:15 AM 48.6 °F 48.6 °F 100% 29.99 in 7.0 mi South 4.6 mph - N/A Rain Rain
7:35 AM 48.9 °F 48.6 °F 99% 29.99 in 10.0 mi South 4.6 mph - 0.01 in Rain Rain
7:55 AM 48.9 °F 48.7 °F 99% 29.99 in 7.0 mi South 5.8 mph - 0.01 in Rain Light Rain
8:15 AM 49.3 °F 49.1 °F 99% 29.98 in 7.0 mi South 5.8 mph - N/A   Overcast
8:35 AM 50.0 °F 49.6 °F 99% 29.99 in 7.0 mi South 3.5 mph - N/A   Overcast
8:55 AM 50.5 °F 50.0 °F 98% 29.98 in 7.0 mi South 4.6 mph - N/A   Overcast
9:15 AM 51.4 °F 50.7 °F 97% 29.97 in 10.0 mi SSW 6.9 mph - N/A   Overcast
9:35 AM 52.7 °F 51.4 °F 95% 29.97 in 10.0 mi SSW 8.1 mph - N/A   Overcast
9:55 AM 53.6 °F 52.3 °F 95% 29.96 in 10.0 mi SSW 6.9 mph - N/A   Overcast
10:15 AM 56.5 °F 54.3 °F 92% 29.96 in 10.0 mi SW 8.1 mph - N/A   Mostly Cloudy
10:35 AM 58.1 °F 54.9 °F 89% 29.96 in 10.0 mi SW 10.4 mph 16.1 mph N/A   Mostly Cloudy
10:55 AM 57.7 °F 54.5 °F 89% 29.97 in 10.0 mi SW 9.2 mph - N/A   Mostly Cloudy
11:15 AM 58.1 °F 54.7 °F 88% 29.96 in 10.0 mi SW 4.6 mph - N/A   Overcast
11:35 AM 59.4 °F 55.0 °F 86% 29.96 in 10.0 mi SW 6.9 mph - N/A   Overcast
11:55 AM 60.8 °F 55.2 °F 82% 29.95 in 10.0 mi WSW 8.1 mph - N/A   Overcast
12:15 PM 61.3 °F 54.9 °F 79% 29.94 in 10.0 mi WSW 9.2 mph - N/A   Overcast
12:35 PM 61.7 °F 54.9 °F 78% 29.94 in 10.0 mi SW 10.4 mph - N/A Thunderstorm Overcast
12:55 PM 62.1 °F 55.2 °F 78% 29.94 in 10.0 mi WSW 8.1 mph - N/A   Overcast
1:15 PM 64.0 °F 55.8 °F 74% 29.92 in 10.0 mi WSW 11.5 mph 16.1 mph N/A   Overcast
1:35 PM 66.6 °F 56.7 °F 70% 29.92 in 10.0 mi SW 11.5 mph 17.3 mph N/A   Overcast
1:55 PM 65.8 °F 55.6 °F 69% 29.91 in 10.0 mi WSW 12.7 mph 20.7 mph N/A   Mostly Cloudy
2:15 PM 67.6 °F 55.2 °F 64% 29.90 in 10.0 mi WSW 10.4 mph 19.6 mph N/A   Scattered Clouds
2:35 PM 67.6 °F 55.0 °F 64% 29.89 in 10.0 mi SW 10.4 mph 17.3 mph N/A   Mostly Cloudy
2:55 PM 68.4 °F 54.5 °F 61% 29.88 in 10.0 mi SW 11.5 mph 19.6 mph N/A   Mostly Cloudy
3:15 PM 68.4 °F 54.1 °F 60% 29.89 in 10.0 mi WSW 11.5 mph - N/A   Overcast
3:35 PM 68.0 °F 53.4 °F 60% 29.89 in 10.0 mi WSW 8.1 mph 16.1 mph N/A   Overcast
3:55 PM 69.1 °F 53.8 °F 58% 29.88 in 10.0 mi WSW 9.2 mph - N/A   Overcast
4:15 PM 68.5 °F 53.2 °F 58% 29.88 in 10.0 mi West 6.9 mph - N/A   Overcast
4:35 PM 61.7 °F 57.4 °F 86% 29.88 in 7.0 mi West 5.8 mph - 0.05 in Rain Light Rain
4:55 PM 63.0 °F 58.5 °F 85% 29.87 in 10.0 mi North - - 0.05 in   Mostly Cloudy
5:15 PM 63.9 °F 58.1 °F 81% 29.86 in 10.0 mi North - - N/A Rain Light Rain
5:35 PM 65.5 °F 57.7 °F 76% 29.86 in 10.0 mi North - - N/A   Scattered Clouds
5:55 PM 65.8 °F 56.5 °F 72% 29.85 in 10.0 mi SSW 5.8 mph - N/A   Clear
6:15 PM 65.3 °F 56.1 °F 72% 29.85 in 10.0 mi North - - N/A   Scattered Clouds
6:35 PM 64.2 °F 55.0 °F 72% 29.86 in 10.0 mi SSW 4.6 mph - N/A   Mostly Cloudy
6:55 PM 62.6 °F 55.6 °F 78% 29.86 in 10.0 mi SSW 4.6 mph - N/A   Overcast
7:15 PM 63.9 °F 54.0 °F 70% 29.87 in 10.0 mi SW 10.4 mph - N/A Rain Light Rain
7:35 PM 65.5 °F 52.2 °F 62% 29.88 in 10.0 mi West 5.8 mph - N/A Rain Light Rain
7:55 PM 60.1 °F 54.7 °F 82% 29.90 in 10.0 mi NW 3.5 mph - 0.01 in Rain Rain
8:15 PM 57.6 °F 54.7 °F 90% 29.89 in 10.0 mi Calm Calm - 0.01 in Rain Light Rain
8:35 PM 57.0 °F 54.5 °F 91% 29.89 in 10.0 mi North 3.5 mph - 0.01 in   Overcast
8:55 PM 56.3 °F 54.5 °F 94% 29.89 in 10.0 mi Calm Calm - 0.01 in   Mostly Cloudy
9:15 PM 55.2 °F 54.5 °F 97% 29.89 in 10.0 mi Calm Calm - N/A   Overcast
9:35 PM 54.5 °F 54.5 °F 100% 29.89 in 10.0 mi Calm Calm - N/A   Mostly Cloudy
9:55 PM 53.8 °F 53.8 °F 100% 29.90 in 10.0 mi Calm Calm - N/A   Clear
10:15 PM 52.9 °F 52.9 °F 100% 29.90 in 5.0 mi Calm Calm - N/A   Mostly Cloudy
10:35 PM 52.5 °F 52.5 °F 100% 29.90 in 10.0 mi Calm Calm - N/A   Scattered Clouds
10:55 PM 51.6 °F 51.6 °F 100% 29.90 in 7.0 mi Calm Calm - N/A   Clear
11:15 PM 51.6 °F 51.6 °F 100% 29.90 in 7.0 mi Calm Calm - N/A   Scattered Clouds
11:35 PM 51.3 °F 51.3 °F 100% 29.89 in 1.5 mi Calm Calm - N/A   Mostly Cloudy
11:55 PM 51.8 °F 51.8 °F 100% 29.89 in 0.5 mi Calm Calm - N/A Fog Fog